Kuala Lumpur, Malaysia

2:39 PM +08 on April 29, 2017 (GMT +0800)
Kuala Lumpur

Weather History for WMKK - May, 2012

Change the Weather History Date:

Thursday, May 31, 2012

  Actual Average Record
Temperature  
Mean Temperature 84 °F -  
Max Temperature 94 °F 90 °F - ()
Min Temperature 73 °F 74 °F - ()
Cooling Degree Days 18    
Growing Degree Days 34 (Base 50)    
Moisture  
Dew Point 76 °F    
Average Humidity 82    
Maximum Humidity 94    
Minimum Humidity 51    
Precipitation  
Precipitation 0.12 in 0.16 in - ()
Sea Level Pressure  
Sea Level Pressure 29.76 in    
Wind  
Wind Speed 3 mph ()    
Max Wind Speed 15 mph    
Max Gust Speed -    
Visibility 6.2 miles    
Events Rain , Thunderstorm    
T = Trace of Precipitation, MM = Missing Value Source: Averaged Metar Reports

Daily Weather History Graph

Daily Weather History Graph

Search for Another Location

Airport or City:

Trip Planner

Search our weather history database for the weather conditions in past years. The results will help you decide how hot, cold, wet, or windy it might be!

Date:

Astronomy

May. 31, 2012 Rise Set
Actual Time 7:02 AM +08 7:20 PM +08
Civil Twilight 6:40 AM +08 7:42 PM +08
Nautical Twilight 6:14 AM +08 8:08 PM +08
Astronomical Twilight 5:48 AM +08 8:34 PM +08
Moon 3:18 PM +08 (5/31) 2:47 AM +08 (5/31)
Length of Visible Light 13h 02m
Length of Day
12h 17m
Waxing Gibbous, 75% of the Moon is Illuminated
May 31
Waxing Gibbous
Jun 4
Full
Jun 11
Last Quarter
Jun 19
New
Jun 27
First Quarter

Hourly Weather History & Observations

Time (+08) Temp. Heat Index Dew Point Humidity Pressure Visibility Wind Dir Wind Speed Gust Speed Precip Events Conditions
12:00 AM 78.8 °F - 77.0 °F 94% 29.80 in 6.2 mi Calm Calm - N/A   Mostly Cloudy
12:30 AM 78.8 °F - 75.2 °F 89% 29.80 in 6.2 mi SSE 1.2 mph - N/A   Mostly Cloudy
1:00 AM 78.8 °F - 77.0 °F 94% 29.80 in 6.2 mi Calm Calm - N/A   Mostly Cloudy
1:30 AM 78.8 °F - 77.0 °F 94% 29.77 in 6.2 mi Calm Calm - N/A   Mostly Cloudy
2:00 AM 80 °F - 77 °F 88% 29.80 in 5 mi Calm Calm - -   Scattered Clouds
2:00 AM 78.8 °F - 75.2 °F 89% 29.77 in 6.2 mi East 1.2 mph - N/A   Mostly Cloudy
2:30 AM 78.8 °F - 75.2 °F 89% 29.77 in 6.2 mi NNE 3.5 mph - N/A   Mostly Cloudy
3:00 AM 78.8 °F - 75.2 °F 89% 29.77 in 6.2 mi NNE 2.3 mph - N/A   Mostly Cloudy
3:30 AM 78.8 °F - 75.2 °F 89% 29.77 in 6.2 mi NE 2.3 mph - N/A   Mostly Cloudy
4:00 AM 78.8 °F - 75.2 °F 89% 29.74 in 6.2 mi ENE 3.5 mph - N/A   Mostly Cloudy
4:30 AM 78.8 °F - 75.2 °F 89% 29.74 in 6.2 mi East 2.3 mph - N/A   Mostly Cloudy
5:00 AM 80 °F - 77 °F 89% 29.77 in 6 mi NNE 1.2 mph - - Rain Light Rain
5:00 AM 77.0 °F - 75.2 °F 94% 29.74 in 6.2 mi Calm Calm - N/A   Mostly Cloudy
5:30 AM 77.0 °F - 75.2 °F 94% 29.74 in 6.2 mi Calm Calm - N/A   Mostly Cloudy
6:00 AM 77.0 °F - 75.2 °F 94% 29.77 in 6.2 mi Calm Calm - N/A   Mostly Cloudy
6:30 AM 77.0 °F - 75.2 °F 94% 29.77 in 6.2 mi NE 3.5 mph - N/A   Mostly Cloudy
7:00 AM 78.8 °F - 75.2 °F 89% 29.77 in 6.2 mi NE 5.8 mph - N/A   Mostly Cloudy
7:30 AM 78.8 °F - 75.2 °F 89% 29.77 in 6.2 mi Calm Calm - N/A   Mostly Cloudy
8:00 AM 80 °F - 78 °F 91% 29.81 in 6 mi SSE 2.3 mph - - Rain Light Rain
8:00 AM 78.8 °F - 75.2 °F 89% 29.77 in 6.2 mi Calm Calm - N/A   Mostly Cloudy
8:30 AM 78.8 °F - 77.0 °F 94% 29.77 in 6.2 mi NNE 3.5 mph - N/A   Mostly Cloudy
9:00 AM 80.6 °F 87.1 °F 77.0 °F 89% 29.80 in 6.2 mi NW 2.3 mph - N/A   Mostly Cloudy
9:30 AM 82.4 °F 90.9 °F 77.0 °F 84% 29.80 in 6.2 mi North 1.2 mph - N/A   Mostly Cloudy
10:00 AM 84.2 °F 94.1 °F 77.0 °F 79% 29.77 in 6.2 mi NW 2.3 mph - N/A   Mostly Cloudy
10:30 AM 86.0 °F 96.9 °F 77.0 °F 74% 29.77 in 6.2 mi WSW 2.3 mph - N/A   Mostly Cloudy
11:00 AM 89 °F - 76 °F 57% 29.81 in 11 mi SSW 3.5 mph - -   Haze
11:00 AM 87.8 °F 99.7 °F 77.0 °F 70% 29.77 in 6.2 mi SSE 4.6 mph - N/A   Mostly Cloudy
11:30 AM 87.8 °F 99.7 °F 77.0 °F 70% 29.77 in 6.2 mi South 3.5 mph - N/A   Mostly Cloudy
12:00 PM 87.8 °F 97.6 °F 75.2 °F 66% 29.77 in 6.2 mi SSW 3.5 mph - N/A   Mostly Cloudy
12:30 PM 87.8 °F 99.7 °F 77.0 °F 70% 29.77 in 6.2 mi South 8.1 mph - N/A   Mostly Cloudy
1:00 PM 89.6 °F 102.2 °F 77.0 °F 66% 29.77 in 6.2 mi SSW 6.9 mph - N/A   Mostly Cloudy
1:30 PM 87.8 °F 99.7 °F 77.0 °F 70% 29.74 in 6.2 mi SSW 4.6 mph - N/A   Mostly Cloudy
2:00 PM 92 °F - 76 °F 51% 29.76 in 7 mi West 9.2 mph - -   Haze
2:00 PM 87.8 °F 99.7 °F 77.0 °F 70% 29.74 in 6.2 mi SSW 6.9 mph - N/A   Mostly Cloudy
2:30 PM 87.8 °F 99.7 °F 77.0 °F 70% 29.71 in 6.2 mi SSW 6.9 mph - N/A   Mostly Cloudy
3:00 PM 87.8 °F 99.7 °F 77.0 °F 70% 29.71 in 6.2 mi SSW 6.9 mph - N/A   Mostly Cloudy
3:30 PM 87.8 °F 99.7 °F 77.0 °F 70% 29.68 in 6.2 mi SSW 6.9 mph - N/A   Mostly Cloudy
4:00 PM 87.8 °F 99.7 °F 77.0 °F 70% 29.68 in 6.2 mi SW 8.1 mph - N/A   Mostly Cloudy
4:30 PM 89.6 °F 99.8 °F 75.2 °F 62% 29.68 in 6.2 mi WSW 8.1 mph - N/A   Mostly Cloudy
5:00 PM 91 °F - 76 °F 54% 29.69 in 7 mi West 10.4 mph - -   Scattered Clouds
5:00 PM 87.8 °F 97.6 °F 75.2 °F 66% 29.68 in 6.2 mi SW 5.8 mph - N/A   Mostly Cloudy
5:30 PM 86.0 °F 96.9 °F 77.0 °F 74% 29.68 in 6.2 mi SSW 5.8 mph - N/A   Mostly Cloudy
6:00 PM 86.0 °F 96.9 °F 77.0 °F 74% 29.68 in 6.2 mi South 3.5 mph - N/A   Mostly Cloudy
6:30 PM 84.2 °F 94.1 °F 77.0 °F 79% 29.68 in 6.2 mi South 3.5 mph - N/A   Mostly Cloudy
7:00 PM 84.2 °F 96.1 °F 78.8 °F 84% 29.71 in 6.2 mi South 2.3 mph - N/A Rain Light Rain
7:30 PM 84.2 °F 96.1 °F 78.8 °F 84% 29.71 in 6.2 mi Calm Calm - N/A Rain Light Rain
8:00 PM 80 °F - 74 °F 78% 29.77 in 6 mi North 10.4 mph - - Thunderstorm Thunderstorm
8:00 PM 82.4 °F 92.4 °F 78.8 °F 89% 29.74 in 6.2 mi WSW 3.5 mph - N/A   Mostly Cloudy
8:30 PM 82.4 °F 92.4 °F 78.8 °F 89% 29.74 in 6.2 mi WNW 1.2 mph - N/A   Mostly Cloudy
9:00 PM 78.8 °F - 75.2 °F 89% 29.77 in 6.2 mi NNE 15.0 mph - N/A   Mostly Cloudy
9:30 PM 77.0 °F - 75.2 °F 94% 29.80 in 4.3 mi ENE 9.2 mph - N/A Rain , Thunderstorm Light Thunderstorms and Rain
10:00 PM 77.0 °F - 75.2 °F 94% 29.80 in 5.0 mi East 5.8 mph - N/A Rain , Thunderstorm Light Thunderstorms and Rain
10:30 PM 77.0 °F - 75.2 °F 94% 29.80 in 5.6 mi ENE 3.5 mph - N/A Rain Light Rain
11:00 PM 78 °F - 77 °F 94% 29.83 in 5 mi East 1.2 mph - - Rain Light Rain
11:00 PM 77.0 °F - 75.2 °F 94% 29.83 in 6.2 mi North 3.5 mph - N/A Rain Light Rain
11:30 PM 77.0 °F - 75.2 °F 94% 29.80 in 6.2 mi NNE 3.5 mph - N/A   Mostly Cloudy